User: anonymous   Login
Location: Arrakis Observatory
(44.1122°N, 95.7153°W)
Time: 14:29:04
(UTC-05:00)
Language:

Iridium 35 - Orbit

View from above orbital plane
View from above orbital plane
View from above satellite
View from above satellite

Ground track
Ground track

The orbit data is extracted from the following two-line orbital elements,

1 24966U 97056B   16177.33893962  .00000205  00000-0  65988-4 0  9996
2 24966  86.3977 107.8970 0002264  84.7738 275.3716 14.34218814981388
Epoch (UTC): 25 June 2016 08:08:04
Eccentricity: 0.0002264
inclination: 86.3977°
perigee height: 776 km
apogee height: 779 km
right ascension of ascending node: 107.8970°
argument of perigee: 84.7738°
revolutions per day: 14.34218814
mean anomaly at epoch: 275.3716°
orbit number at epoch: 98138

The dashed part of the orbit path shows where the satellite is in the earth's shadow,  

DLR